PST,Max TemperatureF,Mean TemperatureF,Min TemperatureF,Max Dew PointF,MeanDew PointF,Min DewpointF,Max Humidity, Mean Humidity, Min Humidity, Max Sea Level PressureIn, Mean Sea Level PressureIn, Min Sea Level PressureIn, Max VisibilityMiles, Mean VisibilityMiles, Min VisibilityMiles, Max Wind SpeedMPH, Mean Wind SpeedMPH, Max Gust SpeedMPH,PrecipitationIn, CloudCover, Events, WindDirDegrees
2011-11-1,79,59,39,24,14,-10,34,18,5,30.18,29.96,29.85,10,10,10,22,8,31,0.00,0,,329
2011-11-2,66,53,37,-1,-3,-8,18,11,6,30.35,30.25,30.19,10,10,10,13,5,,0.00,0,,186
2011-11-3,71,49,28,38,11,-5,57,23,9,30.18,29.96,29.71,10,10,10,30,7,39,0.00,3,,185
2011-11-4,60,51,41,40,32,22,89,52,23,29.79,29.68,29.57,10,10,10,24,14,41,0.03,5,Rain,225
2011-11-5,57,44,32,36,28,22,92,57,29,29.96,29.89,29.78,10,10,10,10,5,,0.00,0,,211
2011-11-6,59,44,32,34,28,20,75,55,30,30.00,29.92,29.85,10,10,10,15,6,24,0.00,2,,261
2011-11-7,60,45,30,29,26,21,88,54,23,30.23,30.12,30.01,10,10,10,8,4,,0.00,0,,201
2011-11-8,59,44,28,25,21,16,75,46,21,30.37,30.29,30.22,10,10,10,8,4,,0.00,0,,209
2011-11-9,62,44,27,19,15,11,63,36,15,30.47,30.38,30.31,10,10,10,8,4,,0.00,2,,206
2011-11-10,62,45,28,17,13,10,47,29,13,30.38,30.26,30.09,10,10,10,7,2,,0.00,2,,209
2011-11-11,60,50,39,31,24,13,48,37,24,30.08,29.95,29.85,10,10,10,7,3,,0.00,5,Rain,243
2011-11-12,57,51,45,43,40,33,90,69,44,29.92,29.89,29.84,10,10,9,8,4,,0.03,7,Rain,277
2011-11-13,64,52,41,40,38,36,86,66,38,29.97,29.92,29.89,10,10,10,7,3,,0.00,1,,212
2011-11-14,64,49,34,40,36,31,92,65,34,30.00,29.93,29.88,10,10,10,9,3,,0.00,1,,190
2011-11-15,69,52,35,37,35,32,89,61,30,30.09,30.02,29.97,10,10,10,7,2,,0.00,0,,188
2011-11-16,69,53,37,36,32,27,86,54,22,30.23,30.17,30.07,10,10,10,8,4,,0.00,0,,206
2011-11-17,69,52,34,32,29,25,76,45,24,30.19,30.03,29.84,10,10,10,12,4,,0.00,2,,240
2011-11-18,70,56,43,35,30,27,56,35,21,29.82,29.69,29.59,10,10,10,32,14,48,0.00,2,,229
2011-11-19,59,52,45,36,28,26,68,42,29,29.82,29.75,29.63,10,10,10,23,13,37,0.00,0,,202
2011-11-20,52,47,42,45,40,33,100,81,53,30.01,29.92,29.80,10,10,6,14,6,22,0.20,7,Rain,295
2011-11-21,55,45,35,43,37,33,100,81,44,30.30,30.13,30.00,10,9,2,8,2,,0.00,2,,207
2011-11-22,57,45,33,39,36,31,96,76,46,30.36,30.28,30.22,10,10,10,7,2,,0.00,3,,201
2011-11-23,59,42,30,39,35,29,96,80,44,30.22,30.14,29.99,10,10,10,6,2,,0.00,4,,214
2011-11-24,,,,,,,,,,,,,,,,,,,,,,
2011-11-25,,,,,,,,,,,,,,,,,,,,,,
2011-11-26,,,,,,,,,,,,,,,,,,,,,,
2011-11-27,,,,,,,,,,,,,,,,,,,,,,
2011-11-28,66,49,32,29,27,23,75,42,20,30.37,30.25,30.19,10,10,10,8,1,,0.00,6,,188
2011-11-29,71,54,37,29,26,22,70,43,16,30.27,30.20,30.12,10,10,10,9,2,,0.00,1,,225
2011-11-30,70,50,30,27,20,11,72,34,15,30.10,29.90,29.70,10,7,1,33,9,45,0.00,1,,328